FENGYUN 2E              
1 33463U 08066A   19266.88715229 -.00000208  00000-0  00000-0 0  9996
2 33463   3.7899  69.0833 0003497 252.2201  86.8544  1.00264802 39430
CZ-3A R/B               
1 33464U 08066B   19266.80980268  .00000038  00000-0  15563-3 0  9999
2 33464  24.9801  67.3008 7192446 170.2857 220.5673  2.32537805 90990
FENGYUN 2E AKM          
1 33465U 08066C   19266.30233745 -.00000108  00000-0  00000+0 0  9991
2 33465   5.1338  58.4366 0035623 261.2643  98.5225  1.02094615 40089
FENGYUN 2E DEB          
1 40987U 08066D   19261.83411827 -.00000410  00000-0  00000+0 0  9996
2 40987   5.3333  58.4327 0118744 290.6148  68.3122  1.00238407 37749